Regional Weather Roundup
Issued by NWS

Home | Current Version | Previous Version | Text Only | Print | Product List | Glossary On
Versions: 1 2 3 4 5 6 7 8 9 10 11 12 13 14 15 16 17 18 19 20 21 22 23 24 25 26 27 28 29 30 31 32 33 34 35 36 37 38 39 40 41 42 43 44 45 46 47 48 49 50
000
ASUS45 KBOU 211207
RWRCO

WEATHER ROUNDUP FOR COLORADO
NATIONAL WEATHER SERVICE DENVER/BOULDER CO
500 AM MST TUE FEB 21 2017

NOTE: "FAIR" INDICATES FEW OR NO CLOUDS BELOW 12000 FEET WITH NO
SIGNIFICANT WEATHER AND/OR OBSTRUCTIONS TO VISIBILITY.

COZ001>005-013-030-031-211300-
...NORTHWEST COLORADO...

CITY           SKY/WX    TMP DP  RH WIND       PRES   REMARKS
CRAIG          CLOUDY    44  30  57 CALM      30.18F
HAYDEN         CLOUDY    37  27  65 SE5       30.20S
MEEKER         CLOUDY    43  32  65 S8        30.22S
MOUNT WERNER   NOT AVBL
STEAMBOAT SPGS CLOUDY    35  28  76 E6        30.21S WCI  30
WALDEN         NOT AVBL
$$

COZ006>008-011-211300-
...WEST CENTRAL VALLEYS...

CITY           SKY/WX    TMP DP  RH WIND       PRES   REMARKS
GRAND JUNCTION FAIR      42  35  76 E6        30.26R
MONTROSE       MOCLDY    40  32  73 SE8       30.32S
EAGLE          CLOUDY    34  27  75 E7        30.30R WCI  28
RIFLE          CLOUDY    39  35  86 NE5       30.26S
DELTA          CLOUDY    44  35  71 E6        30.31R
NUCLA          FAIR      43  32  65 CALM      30.37R
$$

COZ017>023-064>068-211300-
...SOUTHWEST COLORADO...

CITY           SKY/WX    TMP DP  RH WIND       PRES   REMARKS
DURANGO        CLOUDY    34  29  82 NE5       30.38R WCI  30
CORTEZ         CLOUDY    40  37  89 E3        30.36S
PAGOSA SPRINGS FAIR      30  28  91 E3        30.40R
TELLURIDE      FAIR      33  24  69 CALM      30.40R
WOLF CREEK PAS FAIR      21  21 100 W14       30.47R WCI   8
$$

COZ009-010-012-014-032>034-037-058>063-211300-
...CENTRAL COLORADO...

CITY           SKY/WX    TMP DP  RH WIND       PRES   REMARKS
ASPEN          MOCLDY    29  21  72 S7        30.29S WCI  22
BUENA VISTA    FAIR      40  24  51 W7        30.29R
COPPER MTN     CLOUDY    28  21  74 MISG      30.36R
BERTHOUD PASS  FAIR      21  10  63 W32G41    30.29S WCI   2
COTTONWOOD PAS FAIR      37  23  56 W25G37    30.31R
GUNNISON       CLOUDY    23  20  88 CALM      30.39R
KREMMLING      CLOUDY    45  30  57 S5        30.26R
LEADVILLE      FAIR      24  18  77 CALM      30.30R
MONARCH PASS   FOG       23  21  93 W23       30.50R VSB 1/4 WCI   7
SALIDA         FAIR      42  27  55 W8G17     30.37R
SUNLIGHT       NOT AVBL
WILKERSON PASS FAIR      28  18  64 NW9G17    30.36S WCI  20
$$

COZ069>075-211300-
...SAN LUIS VALLEY/SANGRE DE CRISTO MOUNTAINS...

CITY           SKY/WX    TMP DP  RH WIND       PRES   REMARKS
ALAMOSA        FAIR      24  22  91 NW5       30.34R WCI  18
LA VETA PASS   FAIR      28  19  69 NE25G37   30.29R WCI  14
SAGUACHE       FAIR      30  21  69 NW9       30.34S WCI  22
$$

COZ035-036-038>040-211300-
...NORTHERN COLORADO FRONT RANGE...

CITY           SKY/WX    TMP DP  RH WIND       PRES   REMARKS
DENVER INTL AP FAIR      47  21  35 N7        30.04R
DMNS CITY PARK   N/A     58  18  21 SW15G24   30.03R
AURORA         PTCLDY    50  17  27 CALM      30.06R
FRONT RANGE AP FAIR      45  19  36 SE6       30.06R
ERIE MUNI ARPT FAIR      57  21  25 W33G47    29.97F
BOULDER MUN AP FAIR      55  27  33 W30G54    30.00R
CENTENNIAL     FAIR      55  17  22 VRB5      30.06R
BROOMFIELD     FAIR      57  21  24 W43G52    29.99R
FORT COLLINS   FAIR      54  24  31 VRB5      30.01S
LONGMONT       FAIR      58  25  28 W33G52    30.00R
$$

COZ041-046-047-076>085-087-088-211300-
...PIKES PEAK/PALMER DIVIDE AND SOUTHERN FOOTHILLS...

CITY           SKY/WX    TMP DP  RH WIND       PRES   REMARKS
COLO. SPRINGS  FAIR      41   9  26 VRB3      30.08R
A. F. ACADEMY  FAIR      50  19  29 W35G51    30.04R
SCHRIEVER AFB  FAIR      52  15  23 W17G28    30.07S
ELLICOTT       FAIR     N/A N/A N/A N12       30.07R
FALCON         FAIR      49  18  28 W26G35    30.10S
FORT CARSON    FAIR      37   8  30 E3        30.07R
LIMON          FAIR      23  12  62 NW5       30.05R WCI  17
MONUMENT HILL  FAIR      46  18  31 W21G32    30.11R
TRINIDAD       FAIR      35  13  40 W10       30.12S WCI  27
$$

COZ042>045-048>051-090-091-211300-
...NORTHEAST COLORADO...

CITY           SKY/WX    TMP DP  RH WIND       PRES   REMARKS
GREELEY ARPT   FAIR      29  20  69 NE5       30.02R WCI  24
AKRON          FAIR      39  13  34 W14       30.00R
BURLINGTON     FAIR      33  14  45 S9        29.99F WCI  25
WRAY           NOT AVBL
STERLING       FAIR      28  19  69 S12       30.00R WCI  18
HOLYOKE        FAIR      34  19  55 W9        29.97S WCI  26
FORT MORGAN    FAIR      33  15  47 W9        30.02R WCI  26
$$

COZ086-089-092>099-211300-
...SOUTHEAST COLORADO...

CITY           SKY/WX    TMP DP  RH WIND       PRES   REMARKS
PUEBLO         FAIR      53  21  28 W20       30.04S
LA JUNTA       FAIR      34  16  47 W6        30.04S WCI  29
LAMAR          FAIR      29  16  58 SW10      30.01F WCI  20
SPRINGFIELD      N/A     37  14  38 SW9       30.05S
$$



USA.gov is the U.S. government's official web portal to all federal, state and local government web resources and services.